Location: Church Tower
(37.7144°N, 119.6316°W)
Time: 19:22:19
(UTC+00:00)

Cosmos 371 Rocket - Pass Details

Date: 15 November 2025
Orbit: 674 x 690 km, 74.0° (Epoch: 08 December)

Event Time Altitude Azimuth Distance (km) Brightness Sun altitude
Exits shadow 14:02:29 - 321° (NW) 2,640 5.8 -7.6°
Reaches altitude 10° 14:03:59 10° 312° (NW) 2,146 5.3 -7.3°
Maximum altitude 14:07:43 23° 262° (W) 1,466 4.5 -6.6°
Drops below altitude 10° 14:11:26 10° 211° (SSW) 2,131 5.7 -5.9°
Sets 14:14:08 0° 196° (SSW) 3,040 6.7 -5.4°
